Regional Weather Roundup
Issued by NWS

Home | Current Version | Previous Version | Graphics & Text | Print | Product List | Glossary On
Versions: 1 2 3 4 5 6 7 8 9 10 11 12 13 14 15 16 17 18 19 20 21 22 23 24 25 26 27 28 29 30 31 32 33 34 35 36 37 38 39 40 41 42 43 44 45 46 47 48 49 50
000
ASUS43 KFSD 290210
RWRSD

WEATHER ROUNDUP FOR SOUTH DAKOTA
NATIONAL WEATHER SERVICE SIOUX FALLS SD
900 PM CDT FRI AUG 28 2015

NOTE: "FAIR" INDICATES FEW OR NO CLOUDS BELOW 12,000 FEET WITH NO
SIGNIFICANT WEATHER AND/OR OBSTRUCTIONS TO VISIBILITY.


SDZ001>005-009-010-012>017-290300-
NORTHWEST AND NORTH CENTRAL SOUTH DAKOTA

CITY           SKY/WX    TMP DP  RH WIND       PRES   REMARKS
BUFFALO          N/A     74  52  46 W5        29.95R
FAITH            N/A     72  60  66 S10       29.98
MOBRIDGE       PTCLDY    72  69  90 SE8       29.92R
$$

SDZ012>016-024>037-041>051-057-063-072>074-290300-
SOUTHWEST AND SOUTH CENTRAL SOUTH DAKOTA

CITY           SKY/WX    TMP DP  RH WIND       PRES   REMARKS
RAPID CTY ARPT CLEAR     73  60  63 CALM      30.04R
PIERRE         CLEAR     74  66  76 S9        29.96R
CUSTER         CLEAR     69  50  50 CALM      30.22R
ELLSWORTH AFB  CLEAR     77  59  53 SE3       30.04R
PHILIP         CLEAR     72  63  73 SE5       29.98R
PINE RIDGE     CLEAR     69  56  62 E6        30.07R
WINNER         FAIR      71  64  78 S6        30.01R
$$

SDZ004>011-016>023-039-040-290300-
NORTHEAST SOUTH DAKOTA

CITY           SKY/WX    TMP DP  RH WIND       PRES   REMARKS
ABERDEEN       CLEAR     67  65  93 S7        29.96R
WATERTOWN      CLEAR     67  62  84 SE7       30.00R
BROOKINGS      CLEAR     64  57  77 SE8       30.03R
SISSETON         N/A     68  63  84 S9        29.95R
$$

SDZ017-020-022-023-036>040-048>070-290300-
SOUTHEAST SOUTH DAKOTA

CITY           SKY/WX    TMP DP  RH WIND       PRES   REMARKS
SIOUX FALLS    PTCLDY    62  58  86 E6        30.01R
HURON          CLEAR     70  65  84 SE8       29.97R
CHAMBERLAIN    CLEAR     68  66  93 CALM      30.00R
MITCHELL       CLEAR     67  63  87 SE7       29.99R
YANKTON        CLEAR     64  61  88 CALM      29.99R
$$

ABBREVIATIONS USED IN REMARKS
   TC - TEMPERATURE IN CELSIUS
  WCI - WIND CHILL INDEX
   HX - HEAT INDEX
  VSB - VISIBILITY




USA.gov is the U.S. government's official web portal to all federal, state and local government web resources and services.